[[{"header":{"parameterUnit":"m.s-1","parameterCategory":1,"la1":30.2991,"la2":30.254,"lo1":-89.0895,"lo2":-89.0444,"dy":0.0017,"dx":0.0017,"nx":28,"ny":28,"refTime":"2025-06-03T09:00:00:Z","depth":0,"parameterNumber":2,"parameterNumberName":"U-component_of_WINDS"},"data":[0,0,0,0,0,0,0,0,0,0,0,0,0,0,0,0,0,0,0,0,0,0,0,0,0,0,0,0,0,0,0,0,0,0,0,0,0,0,0,0,0,0,0,0,0,0,0,0,0,0,0,0,0,0,0,0,0,0,-3.8075,-3.8075,0,-3.8093,-3.8093,-3.8093,-3.801,-3.8008,-3.8006,-3.8003,-3.802,-3.8023,-3.8025,0,0,0,0,0,0,0,0,0,0,0,0,0,-3.797,-3.7972,-3.8075,-3.8075,-3.8075,-3.8093,-3.8093,-3.8093,-3.8011,-3.8008,-3.8005,-3.8002,-3.8019,-3.8022,-3.8025,0,0,0,0,0,0,0,0,0,0,0,0,0,-3.8004,-3.7973,-3.8075,-3.8036,-3.8033,-3.8093,-3.8093,-3.8093,-3.8011,-3.8008,-3.8004,-3.8001,-3.8018,-3.8022,-3.8026,-3.8122,0,0,-3.8038,-3.804,0,0,0,0,0,0,0,0,-3.8002,-3.8008,-3.8042,-3.8039,-3.8036,-3.8046,-3.8062,-3.8103,-3.8012,-3.802,-3.8003,-3.7999,-3.8031,-3.8034,-3.8045,-3.8123,-3.8124,-3.8038,-3.8041,-3.8043,-3.8044,0,0,0,0,0,0,0,-3.8,-3.8007,-3.8082,-3.8042,-3.8039,-3.8018,-3.8019,-3.8069,-3.8045,-3.8019,-3.8013,-3.8016,-3.8029,-3.8042,-3.8045,-3.8124,-3.8038,-3.8042,-3.8044,-3.8046,-3.8284,-3.8287,0,0,0,0,0,0,-3.8003,-3.8005,-3.8081,-3.8082,-3.801,-3.8023,-3.8024,-3.8046,-3.8045,-3.8041,-3.8019,-3.8012,-3.8036,-3.804,-3.8045,-3.8158,-3.8043,-3.8046,-3.8049,-3.828,-3.8284,-3.8289,0,0,0,0,0,0,-3.8001,-3.801,-3.808,-3.8042,-3.805,-3.8029,-3.8054,-3.8048,-3.8061,-3.8045,-3.804,-3.8036,-3.8034,-3.804,-3.8104,-3.8157,-3.8048,-3.8052,-3.8275,-3.8281,-3.8287,-3.8385,0,0,0,0,0,0,-3.7998,-3.801,-3.8046,-3.8044,-3.8052,-3.8139,-3.8057,-3.8051,-3.8068,-3.8059,-3.806,-3.8056,-3.8031,-3.8099,-3.8108,-3.8161,-3.8055,-3.827,-3.8278,-3.8285,-3.8376,-3.8393,-3.8407,0,0,0,0,0,-3.7995,-3.8073,-3.8049,-3.8058,-3.8097,-3.8143,-3.8147,-3.8117,-3.8073,-3.8109,-3.8099,-3.8056,-3.8151,-3.8106,-3.8116,-3.8171,-3.8267,-3.8276,-3.8284,-3.837,-3.839,-3.8407,0,0,0,0,0,0,-3.8081,-3.8071,-3.8045,-3.8124,-3.8135,-3.8128,-3.8173,-3.814,-3.8162,-3.8153,-3.8115,-3.8116,-3.8187,-3.8186,-3.8136,-3.8265,-3.8201,-3.8212,-3.8262,-3.8282,-3.8297,-3.8294,-3.8058,0,0,0,0,0,-3.8109,-3.8147,-3.8137,-3.8208,-3.8215,-3.8194,-3.8212,-3.8189,-3.8198,-3.8202,-3.8197,-3.8207,-3.8239,-3.8261,-3.8289,-3.8377,-3.8376,-3.842,-3.8436,-3.8448,-3.8458,-3.8504,-3.8524,-3.8318,-3.8318,-3.8317,0,0,-3.8168,-3.8167,-3.8193,-3.8226,-3.8231,-3.8271,-3.8198,-3.8243,-3.8272,-3.8208,-3.8269,-3.8266,-3.8275,-3.8352,-3.8386,-3.8353,-3.8515,-3.8459,-3.847,-3.8472,-3.8515,-3.8535,-3.8552,-3.8324,-3.8322,-3.8322,0,0,-3.8294,-3.8299,-3.8358,-3.8366,-3.8376,-3.8362,-3.8377,-3.8376,-3.8372,-3.8433,-3.8386,-3.8421,-3.8476,-3.8485,-3.8497,-3.8631,-3.8592,-3.8642,-3.8721,-3.8767,-3.8783,-3.8797,-3.8844,-3.8862,-3.8651,-3.8652,-3.8652,0,-3.8365,-3.8424,-3.8393,-3.8442,-3.8457,-3.8404,-3.8464,-3.8473,-3.8492,-3.8504,-3.8468,-3.8538,-3.854,-3.8619,-3.8652,-3.8664,-3.8679,-3.864,-3.8784,-3.8798,-3.881,-3.8855,-3.8872,-3.8658,-3.8657,-3.8656,-3.8656,0,-3.851,-3.8552,-3.8599,-3.862,-3.8641,-3.8696,-3.8673,-3.8699,-3.8675,-3.8665,-3.8728,-3.873,-3.8758,-3.8775,-3.8752,-3.8851,-3.8831,-3.879,-3.8724,-3.8836,-3.8877,-3.8894,-3.8666,-3.8664,-3.8662,-3.8661,0,0,-3.8687,-3.8693,-3.871,-3.872,-3.8729,-3.876,-3.8813,-3.8842,-3.8864,-3.888,-3.8923,-3.8974,-3.8937,-3.895,-3.8928,-3.8969,-3.9074,-3.8923,-3.8922,-3.895,-3.9184,-3.9213,-3.9233,-3.905,-3.9053,-3.9056,-3.9182,0,-3.881,-3.89,-3.8876,-3.8966,-3.9004,-3.8956,-3.9002,-3.9013,-3.9006,-3.9037,-3.9029,-3.9065,-3.9014,-3.9022,-3.9061,-3.9053,-3.912,-3.9044,-3.9089,-3.9091,-3.9085,-3.9254,-3.9284,-3.9403,-3.9198,-3.9201,-3.9203,0,-3.8965,-3.8988,-3.9082,-3.9086,-3.9102,-3.9143,-3.9169,-3.92,-3.9212,-3.9204,-3.9221,-3.9191,-3.9243,-3.918,-3.9252,-3.9201,-3.9218,-3.9218,-3.9222,-3.9223,-3.9152,-3.9258,-3.9441,-3.9458,-3.9228,-3.9226,-3.9224,0,-3.9083,-3.9138,-3.9202,-3.9211,-3.9218,-3.9249,-3.9253,-3.9261,-3.9281,-3.9304,-3.9316,-3.9344,-3.9359,-3.9382,-3.9361,-3.9317,-3.9436,-3.9371,-3.943,-3.9431,-3.9455,-3.9453,-3.9641,-3.947,-3.947,-3.947,-3.9469,0,-3.9221,-3.928,-3.9255,-3.9294,-3.9359,-3.9332,-3.9397,-3.9396,-3.9405,-3.9442,-3.9403,-3.9439,-3.941,-3.9444,-3.9428,-3.949,-3.9498,-3.9492,-3.9487,-3.9494,-3.9495,-3.9503,-3.9494,-3.9474,-3.9473,-3.9472,-3.9472,0,-3.9363,-3.9348,-3.9414,-3.9416,-3.9419,-3.9467,-3.9468,-3.9504,-3.9496,-3.9545,-3.9555,-3.9541,-3.958,-3.9562,-3.9602,-3.9591,-3.967,-3.9655,-3.9666,-3.9661,-3.9721,-3.9715,-3.9919,-3.9944,-3.9759,-3.9761,-3.9762,0,-3.945,-3.9495,-3.9503,-3.9526,-3.9533,-3.9571,-3.9591,-3.9567,-3.959,-3.9608,-3.9642,-3.9678,-3.9704,-3.9768,-3.9762,-3.9793,-3.9777,-3.9846,-3.9781,-3.9787,-3.9776,-3.9773,-3.9777,-3.9858,-3.986,-3.9862,-3.9864,0,-3.9608,-3.9599,-3.963,-3.966,-3.9686,-3.9708,-3.9726,-3.9747,-3.9724,-3.9752,-3.9791,-3.9812,-3.9854,-3.9889,-3.9917,-3.9921,-3.9889,-3.9885,-3.99,-3.9907,-3.9911,-3.9908,-3.97,-3.9879,-3.9878,-3.9877,-3.9876,-3.9875,-3.9724,-3.9761,-3.9773,-3.981,-3.9822,-3.9841,-3.9875,-3.9872,-3.9905,-3.9937,-3.9922,-3.9968,-3.998,-4.0014,-4.0023,-4.0059,-4.0031,-4.0053,-4.0058,-4.0064,-4.0071,-3.9908,-4.0064,-4.0064,-4.0063,-4.0063,-4.0063,0,-3.9877,-3.9884,-3.9918,-3.9946,-3.9975,-3.9944,-3.9964,-3.999,-4.0031,-4.0046,-4.0074,-4.012,-4.0155,-4.0153,-4.0186,-4.0215,-4.0201,-4.0224,-4.022,-4.0222,-4.0095,-4.0078,-4.0235,-4.0235,-4.0235,-4.0235,-4.0235,-4.0235,-3.9961,-4.0023,-4.0017,-4.0085,-4.0091,-4.0136,-4.015,-4.0167,-4.0179,-4.0233,-4.0262,-4.0262,-4.027,-4.0303,-4.0334,-4.0333,-4.0346,-4.0375,-4.0368,-4.0248,-4.0231,-4.0214,-4.0198,-4.0378,-4.0378,-4.0491,-4.0493,-4.0493]},{"header":{"parameterUnit":"m.s-1","parameterCategory":1,"la1":30.2991,"la2":30.254,"lo1":-89.0895,"lo2":-89.0444,"dy":0.0017,"dx":0.0017,"nx":28,"ny":28,"refTime":"2025-06-03T09:00:00:Z","depth":0,"parameterNumber":3,"parameterNumberName":"V-component_of_WINDS"},"data":[0,0,0,0,0,0,0,0,0,0,0,0,0,0,0,0,0,0,0,0,0,0,0,0,0,0,0,0,0,0,0,0,0,0,0,0,0,0,0,0,0,0,0,0,0,0,0,0,0,0,0,0,0,0,0,0,0,0,1.5397,1.5397,0,1.5369,1.5368,1.5368,1.5372,1.5372,1.5373,1.5373,1.534,1.5339,1.5337,0,0,0,0,0,0,0,0,0,0,0,0,0,1.5451,1.545,1.5397,1.5397,1.5396,1.5369,1.5368,1.5368,1.5372,1.5372,1.5373,1.5374,1.534,1.5339,1.5337,0,0,0,0,0,0,0,0,0,0,0,0,0,1.5426,1.545,1.5397,1.5395,1.5395,1.5369,1.5368,1.5368,1.5372,1.5372,1.5373,1.5374,1.5341,1.5339,1.5337,1.531,0,0,1.5331,1.533,0,0,0,0,0,0,0,0,1.5427,1.5424,1.5396,1.5395,1.5395,1.5375,1.5375,1.5348,1.5372,1.538,1.5373,1.5374,1.5351,1.5348,1.5341,1.5309,1.5307,1.5331,1.533,1.5329,1.5328,0,0,0,0,0,0,0,1.5429,1.5425,1.5386,1.5395,1.5395,1.5394,1.5392,1.537,1.5362,1.538,1.538,1.5377,1.535,1.5343,1.534,1.5307,1.5331,1.5329,1.5328,1.5327,1.5252,1.5251,0,0,0,0,0,0,1.5432,1.5426,1.5387,1.5385,1.5413,1.5393,1.539,1.538,1.5362,1.536,1.5376,1.5377,1.5346,1.5342,1.5339,1.5307,1.5329,1.5327,1.5326,1.5252,1.5251,1.5251,0,0,0,0,0,0,1.5433,1.5428,1.5388,1.5406,1.5401,1.5391,1.5381,1.5379,1.5372,1.5359,1.5357,1.537,1.5346,1.5342,1.5318,1.5305,1.5326,1.5324,1.5253,1.5252,1.5251,1.5241,0,0,0,0,0,0,1.5434,1.5428,1.5419,1.5405,1.54,1.5368,1.538,1.5378,1.5369,1.537,1.5353,1.5351,1.5347,1.5321,1.5316,1.5303,1.5322,1.5254,1.5253,1.5251,1.5243,1.524,1.5238,0,0,0,0,0,1.5436,1.5416,1.5418,1.5413,1.5388,1.5367,1.5364,1.536,1.5368,1.5358,1.535,1.5352,1.5308,1.5318,1.5313,1.5299,1.5255,1.5253,1.5251,1.5244,1.5241,1.5238,0,0,0,0,0,0,1.5426,1.5414,1.5416,1.5392,1.5381,1.5368,1.5355,1.5357,1.5342,1.5343,1.5338,1.5335,1.531,1.5302,1.5314,1.5273,1.5282,1.5279,1.5279,1.5275,1.5273,1.5275,1.5321,0,0,0,0,0,1.5422,1.5407,1.5397,1.5376,1.5371,1.5364,1.5355,1.5353,1.5341,1.5336,1.5326,1.5313,1.5297,1.5286,1.527,1.5242,1.5238,1.523,1.5228,1.5226,1.5223,1.5208,1.5204,1.5245,1.5245,1.5245,0,0,1.5411,1.5403,1.5393,1.5374,1.5365,1.535,1.536,1.5342,1.5331,1.5333,1.531,1.5303,1.5288,1.5262,1.525,1.5255,1.5211,1.5223,1.5222,1.522,1.5206,1.5202,1.5198,1.5243,1.5244,1.5244,0,0,1.5383,1.5376,1.5358,1.535,1.5337,1.5333,1.5329,1.5316,1.5312,1.5289,1.5291,1.5276,1.5248,1.5237,1.5228,1.5199,1.52,1.5194,1.518,1.5166,1.5162,1.5159,1.5149,1.5145,1.5191,1.5191,1.5191,0,1.5371,1.5349,1.5348,1.5331,1.5323,1.5326,1.5307,1.5299,1.5281,1.5274,1.528,1.5246,1.5236,1.5208,1.5201,1.5193,1.5188,1.5195,1.5163,1.516,1.5158,1.5147,1.5143,1.519,1.519,1.519,1.5191,0,1.5335,1.5319,1.5306,1.5291,1.5281,1.5263,1.5259,1.5248,1.5248,1.5243,1.522,1.5209,1.5191,1.5185,1.5183,1.5157,1.516,1.5165,1.5174,1.5153,1.5143,1.5139,1.5189,1.519,1.519,1.519,0,0,1.5299,1.5285,1.528,1.5274,1.5261,1.5248,1.5231,1.5215,1.5206,1.5194,1.5179,1.5155,1.516,1.515,1.5148,1.5135,1.5113,1.5141,1.5141,1.5136,1.5082,1.5079,1.5074,1.5114,1.5113,1.5113,1.5084,0,1.527,1.5241,1.524,1.5212,1.5198,1.5202,1.5187,1.5177,1.5172,1.5158,1.5152,1.5136,1.5144,1.5137,1.5125,1.5118,1.5102,1.512,1.5098,1.5098,1.5102,1.5069,1.5065,1.5038,1.508,1.5079,1.5079,0,1.5232,1.5221,1.5193,1.5183,1.5177,1.5163,1.5149,1.5137,1.5125,1.5123,1.5112,1.5112,1.5094,1.5105,1.5079,1.5091,1.5083,1.5078,1.5077,1.5074,1.5086,1.5065,1.5029,1.5025,1.5073,1.5073,1.5074,0,1.5209,1.5186,1.5167,1.5161,1.5149,1.514,1.5134,1.5124,1.5115,1.5102,1.5096,1.5081,1.5072,1.506,1.5056,1.5065,1.503,1.5041,1.5026,1.5026,1.5018,1.5018,1.498,1.5013,1.5013,1.5014,1.5014,0,1.5176,1.5159,1.5156,1.5144,1.5124,1.5124,1.5104,1.5099,1.509,1.5076,1.5078,1.5065,1.5061,1.5046,1.5043,1.5022,1.5018,1.5015,1.5014,1.5014,1.5014,1.5007,1.5009,1.5013,1.5013,1.5013,1.5013,0,1.5146,1.5144,1.5123,1.5114,1.5112,1.5097,1.5089,1.5077,1.5074,1.5056,1.5052,1.5046,1.5029,1.5024,1.5004,1.5002,1.4977,1.4978,1.4981,1.4981,1.4967,1.4968,1.4922,1.4916,1.4954,1.4953,1.4953,0,1.5125,1.5112,1.5103,1.5095,1.5089,1.5075,1.5067,1.5066,1.5056,1.5044,1.5033,1.5017,1.5004,1.4978,1.4971,1.4955,1.4955,1.4941,1.4953,1.4954,1.4955,1.4955,1.4954,1.4938,1.4937,1.4937,1.4937,0,1.5088,1.5089,1.5077,1.5065,1.5055,1.5045,1.5035,1.5028,1.5026,1.5015,1.4999,1.499,1.497,1.4954,1.4939,1.4932,1.4933,1.4933,1.4929,1.4929,1.4931,1.493,1.4974,1.4934,1.4934,1.4934,1.4935,1.4935,1.5062,1.5051,1.5043,1.503,1.5023,1.5014,1.5003,1.4999,1.4986,1.4971,1.4971,1.4954,1.4943,1.4923,1.4916,1.4902,1.4906,1.49,1.4898,1.4896,1.4895,1.4934,1.4899,1.4899,1.4899,1.4899,1.4899,0,1.5025,1.5021,1.5009,1.4997,1.4986,1.4991,1.4981,1.4972,1.4957,1.4948,1.4936,1.4918,1.4903,1.4895,1.488,1.487,1.4871,1.4866,1.4867,1.4865,1.4892,1.4898,1.4866,1.4866,1.4866,1.4866,1.4866,1.4866,1.5005,1.4986,1.4986,1.4964,1.4959,1.4943,1.4937,1.4929,1.4922,1.4902,1.4891,1.4887,1.4878,1.4862,1.4849,1.4847,1.4841,1.4836,1.4834,1.486,1.4863,1.4866,1.4871,1.4835,1.4835,1.4808,1.4808,1.4807]}]]